Location: Newark
(46.8500°N, 5.1667°E)
Time: 22:44:23
(UTC+00:00)

ISS - Pass Details

Date: 19 September 2019
Orbit: 411 x 421 km, 51.6° (Epoch: 21 October)

Event Time Altitude Azimuth Distance (km) Brightness Sun altitude
Rises 20:05:08 0° 238° (WSW) 2,335 0.4 -23.8°
Reaches altitude 10° 20:07:13 10° 237° (WSW) 1,476 -0.7 -24.1°
Enters shadow 20:07:56 16° 236° (WSW) 1,184 -1.2 -24.2°
